[[{"header":{"parameterUnit":"m.s-1","parameterCategory":2,"la1":30.2991,"la2":30.254,"lo1":-89.0895,"lo2":-89.0444,"dy":0.0017,"dx":0.0017,"nx":28,"ny":28,"refTime":"2025-08-14T09:00:00:Z","depth":"0","parameterNumber":2,"parameterNumberName":"U-component_of_CURRENTS"},"data":[0,0,0,0,0,0,0,0,0,0,0,0,0,0,0,0,0,0,0,0,0,0,0,0,0,0,0,0,0,0,0,0,0,0,0,0,0,0,0,0,0,0,0,0,0,0,0,0,0,0,0,0,0,0,0,0,0,0,0.1558,0.1556,0,0.1344,0.1342,0.1339,0.1201,0.1201,0.12,0.12,0.1098,0.1096,0.1094,0,0,0,0,0,0,0,0,0,0,0,0,0,0.1541,0.1544,0.1558,0.1555,0.1553,0.1345,0.1341,0.1338,0.1201,0.1201,0.12,0.1199,0.1099,0.1096,0.1094,0,0,0,0,0,0,0,0,0,0,0,0,0,0.1458,0.1545,0.1558,0.1462,0.1451,0.1345,0.1341,0.1337,0.1202,0.1201,0.12,0.1199,0.11,0.1096,0.1093,0.109,0,0,0.1083,0.1082,0,0,0,0,0,0,0,0,0.1463,0.1459,0.1478,0.1468,0.1456,0.1301,0.1298,0.1261,0.1202,0.1293,0.12,0.1199,0.1179,0.1169,0.1125,0.1085,0.1081,0.1083,0.1081,0.108,0.1079,0,0,0,0,0,0,0,0.147,0.1465,0.147,0.1476,0.1463,0.1325,0.1314,0.1288,0.1243,0.1285,0.1275,0.1257,0.1173,0.1128,0.1122,0.1079,0.1083,0.108,0.1078,0.1077,0.1011,0.1011,0,0,0,0,0,0,0.152,0.1473,0.1477,0.1464,0.1461,0.1327,0.1315,0.1349,0.1241,0.1223,0.1258,0.1251,0.1134,0.1126,0.1118,0.1122,0.108,0.1076,0.1075,0.1011,0.1011,0.1012,0,0,0,0,0,0,0.1522,0.1525,0.1486,0.1461,0.1448,0.1331,0.1368,0.1346,0.1297,0.1219,0.1203,0.1233,0.1133,0.1123,0.1077,0.1117,0.1075,0.1072,0.1011,0.1011,0.1011,0.1121,0,0,0,0,0,0,0.1523,0.1528,0.1554,0.1468,0.1451,0.1419,0.1369,0.1342,0.1289,0.1278,0.1194,0.1182,0.1132,0.1082,0.1074,0.1111,0.1069,0.101,0.1011,0.1011,0.1118,0.1126,0.1132,0,0,0,0,0,0.1524,0.1587,0.1558,0.1556,0.1499,0.1419,0.1396,0.1305,0.1289,0.1261,0.1203,0.1185,0.108,0.1079,0.107,0.1107,0.101,0.1011,0.1011,0.1114,0.1124,0.1132,0,0,0,0,0,0,0.1567,0.1576,0.1543,0.1597,0.1506,0.1397,0.1381,0.1317,0.1245,0.1257,0.1177,0.1161,0.1144,0.1101,0.1103,0.1086,0.1047,0.1046,0.1129,0.1138,0.1145,0.1204,0.1067,0,0,0,0,0,0.1599,0.1661,0.1589,0.1615,0.1598,0.1489,0.1445,0.1387,0.1317,0.1283,0.1216,0.1168,0.1138,0.1117,0.1077,0.1064,0.1071,0.1083,0.109,0.1097,0.1136,0.1124,0.1135,0.1013,0.1013,0.1013,0,0,0.1607,0.1628,0.1649,0.1628,0.157,0.1533,0.1461,0.1421,0.139,0.1292,0.1247,0.1196,0.1139,0.112,0.111,0.1089,0.1144,0.1098,0.1104,0.1141,0.1126,0.1138,0.1149,0.1013,0.1013,0.1013,0,0,0.1659,0.1694,0.1748,0.1698,0.1641,0.1578,0.1574,0.1474,0.1441,0.138,0.1322,0.1289,0.121,0.1183,0.1163,0.1191,0.1186,0.1177,0.1262,0.1249,0.1261,0.127,0.1345,0.136,0.1177,0.1177,0.1177,0,0.1646,0.1726,0.1726,0.174,0.1701,0.1612,0.1595,0.1554,0.1438,0.144,0.1385,0.1306,0.1251,0.1262,0.1261,0.1216,0.1228,0.1236,0.1264,0.1273,0.1281,0.1354,0.137,0.1183,0.1182,0.1181,0.1181,0,0.1714,0.1755,0.1782,0.1788,0.1743,0.1721,0.1663,0.1634,0.1587,0.1541,0.1533,0.1443,0.1401,0.1376,0.1325,0.1364,0.1366,0.128,0.1252,0.1301,0.1374,0.1389,0.119,0.1188,0.1187,0.1185,0,0,0.1721,0.1812,0.1809,0.1814,0.1771,0.1733,0.174,0.1707,0.1728,0.1652,0.1671,0.1614,0.1585,0.1561,0.1498,0.1482,0.1552,0.1414,0.1411,0.1513,0.1595,0.1701,0.1727,0.1458,0.146,0.1461,0.1644,0,0.1738,0.1805,0.1834,0.1827,0.184,0.1794,0.1791,0.1768,0.175,0.1753,0.1736,0.172,0.1654,0.1631,0.162,0.155,0.1586,0.1516,0.1513,0.1516,0.1621,0.1744,0.1759,0.1931,0.1658,0.166,0.1662,0,0.1771,0.1821,0.1846,0.1878,0.1875,0.1852,0.1847,0.1835,0.1868,0.1869,0.1893,0.1866,0.1884,0.1781,0.1782,0.1736,0.1706,0.1657,0.166,0.1735,0.1648,0.1824,0.1967,0.1843,0.1683,0.1681,0.168,0,0.1758,0.1817,0.1845,0.1839,0.1856,0.1866,0.1858,0.1875,0.1885,0.1953,0.1973,0.2003,0.1995,0.1961,0.191,0.1836,0.1914,0.1783,0.1883,0.1892,0.1899,0.1906,0.1943,0.1817,0.1817,0.1816,0.1816,0,0.1763,0.1776,0.1849,0.1849,0.1865,0.1878,0.1895,0.1912,0.1956,0.1988,0.2033,0.2068,0.2024,0.2059,0.1999,0.2045,0.2001,0.1974,0.1955,0.1944,0.1952,0.1835,0.1713,0.1823,0.1822,0.182,0.1819,0,0.1715,0.1772,0.1796,0.1846,0.1858,0.1855,0.1883,0.1909,0.1968,0.2014,0.204,0.2128,0.2203,0.2216,0.219,0.2172,0.2126,0.2198,0.2255,0.2241,0.2204,0.2087,0.2088,0.2046,0.2353,0.2357,0.2361,0,0.169,0.1709,0.1762,0.1772,0.1789,0.181,0.1825,0.1889,0.1923,0.2039,0.2064,0.2198,0.2284,0.2404,0.2427,0.2484,0.2279,0.2514,0.2367,0.2288,0.2139,0.1987,0.1937,0.2436,0.2439,0.2442,0.2445,0,0.1602,0.1622,0.1638,0.169,0.1713,0.1749,0.1794,0.1826,0.1911,0.1979,0.2091,0.2185,0.2391,0.2495,0.2642,0.2643,0.2405,0.2579,0.2437,0.2208,0.2098,0.202,0.2279,0.2471,0.2468,0.2466,0.2465,0.2464,0.149,0.1489,0.1527,0.157,0.1618,0.1681,0.1702,0.1778,0.1841,0.1948,0.2066,0.2215,0.2439,0.2665,0.2682,0.2729,0.2585,0.2615,0.2492,0.2357,0.2278,0.2675,0.2861,0.2861,0.2861,0.286,0.286,0,0.1345,0.1373,0.1405,0.1467,0.1518,0.1579,0.1664,0.17,0.1771,0.1911,0.2018,0.227,0.2447,0.2597,0.2721,0.2618,0.2497,0.2518,0.2247,0.2208,0.253,0.2494,0.2679,0.2679,0.2679,0.2679,0.268,0.268,0.126,0.1245,0.13,0.1349,0.1411,0.1476,0.1523,0.1598,0.1701,0.1851,0.1991,0.2123,0.2321,0.2389,0.238,0.2365,0.2114,0.2097,0.1985,0.2128,0.2124,0.212,0.2059,0.215,0.2149,0.1664,0.166,0.1656]},{"header":{"parameterUnit":"m.s-1","parameterCategory":2,"la1":30.2991,"la2":30.254,"lo1":-89.0895,"lo2":-89.0444,"dy":0.0017,"dx":0.0017,"nx":28,"ny":28,"refTime":"2025-08-14T09:00:00:Z","depth":"0","parameterNumber":3,"parameterNumberName":"V-component_of_CURRENTS"},"data":[0,0,0,0,0,0,0,0,0,0,0,0,0,0,0,0,0,0,0,0,0,0,0,0,0,0,0,0,0,0,0,0,0,0,0,0,0,0,0,0,0,0,0,0,0,0,0,0,0,0,0,0,0,0,0,0,0,0,-0.0228,-0.0227,0,-0.0084,-0.0082,-0.0081,-0.0046,-0.0047,-0.0048,-0.0048,-0.0091,-0.0091,-0.0092,0,0,0,0,0,0,0,0,0,0,0,0,0,-0.0389,-0.0387,-0.0229,-0.0227,-0.0224,-0.0084,-0.0082,-0.0081,-0.0046,-0.0047,-0.0048,-0.0049,-0.0091,-0.0091,-0.0092,0,0,0,0,0,0,0,0,0,0,0,0,0,-0.0292,-0.0386,-0.0229,-0.0188,-0.0183,-0.0084,-0.0082,-0.008,-0.0046,-0.0047,-0.0048,-0.0049,-0.009,-0.0091,-0.0092,-0.0075,0,0,-0.0094,-0.0094,0,0,0,0,0,0,0,0,-0.0298,-0.0287,-0.0196,-0.0191,-0.0185,-0.0082,-0.0154,-0.0087,-0.0046,-0.0101,-0.0048,-0.005,-0.0103,-0.0102,-0.0074,-0.0077,-0.0079,-0.0094,-0.0095,-0.0095,-0.0095,0,0,0,0,0,0,0,-0.0305,-0.0292,-0.0174,-0.0194,-0.0187,-0.0147,-0.0136,-0.014,-0.0103,-0.0096,-0.0093,-0.0072,-0.0101,-0.0073,-0.0075,-0.0079,-0.0094,-0.0095,-0.0095,-0.0095,-0.0111,-0.011,0,0,0,0,0,0,-0.032,-0.0299,-0.0179,-0.017,-0.0242,-0.0144,-0.0131,-0.0116,-0.0099,-0.0095,-0.0071,-0.0071,-0.0071,-0.0074,-0.0077,-0.0087,-0.0095,-0.0095,-0.0096,-0.0111,-0.0111,-0.011,0,0,0,0,0,0,-0.0324,-0.0311,-0.0184,-0.0228,-0.0209,-0.014,-0.0123,-0.0113,-0.0076,-0.0077,-0.0078,-0.0045,-0.0072,-0.0076,-0.008,-0.0088,-0.0096,-0.0096,-0.0111,-0.0111,-0.011,-0.0089,0,0,0,0,0,0,-0.0329,-0.0313,-0.0313,-0.023,-0.0207,-0.0141,-0.0122,-0.0109,-0.0061,-0.0059,-0.0056,-0.006,-0.0074,-0.0079,-0.0081,-0.0089,-0.0097,-0.0111,-0.0111,-0.011,-0.0089,-0.0088,-0.0087,0,0,0,0,0,-0.0335,-0.0339,-0.0314,-0.03,-0.0208,-0.014,-0.0126,-0.0082,-0.0059,-0.0051,-0.0042,-0.006,-0.0081,-0.0079,-0.0081,-0.009,-0.0111,-0.0111,-0.0111,-0.009,-0.0088,-0.0087,0,0,0,0,0,0,-0.0397,-0.0332,-0.0305,-0.0284,-0.022,-0.0134,-0.0125,-0.0072,-0.0049,-0.0061,-0.005,-0.0055,-0.0069,-0.0076,-0.0073,-0.0095,-0.0102,-0.0103,-0.0086,-0.0085,-0.0083,-0.0085,-0.0098,0,0,0,0,0,-0.041,-0.0402,-0.0319,-0.0299,-0.0278,-0.0193,-0.0159,-0.0123,-0.0083,-0.0071,-0.005,-0.0053,-0.0068,-0.0072,-0.0088,-0.0086,-0.01,-0.0097,-0.0095,-0.0094,-0.0097,-0.0137,-0.0139,-0.011,-0.011,-0.011,0,0,-0.0421,-0.0387,-0.0378,-0.0312,-0.0267,-0.0226,-0.0178,-0.0135,-0.0086,-0.0085,-0.0035,-0.005,-0.0068,-0.0076,-0.0083,-0.0083,-0.0103,-0.0094,-0.0093,-0.0097,-0.0137,-0.014,-0.0143,-0.011,-0.011,-0.011,0,0,-0.0442,-0.0417,-0.0419,-0.0377,-0.0314,-0.0257,-0.0241,-0.0149,-0.0107,-0.0055,-0.0057,-0.0072,-0.0052,-0.0075,-0.0085,-0.0082,-0.0099,-0.0086,-0.0073,-0.0111,-0.0114,-0.0117,-0.0108,-0.011,-0.0079,-0.0079,-0.0079,0,-0.0456,-0.044,-0.0404,-0.039,-0.0352,-0.027,-0.024,-0.0179,-0.009,-0.0057,-0.005,-0.0037,-0.0057,-0.0076,-0.0077,-0.0082,-0.0086,-0.0077,-0.011,-0.0114,-0.0117,-0.0107,-0.011,-0.0078,-0.0078,-0.0078,-0.0078,0,-0.0467,-0.0456,-0.0455,-0.0409,-0.0367,-0.0333,-0.0244,-0.0185,-0.0117,-0.0057,-0.0038,-0.0052,-0.0048,-0.0059,-0.0065,-0.0097,-0.0084,-0.0109,-0.0115,-0.0119,-0.0107,-0.011,-0.0076,-0.0077,-0.0077,-0.0077,0,0,-0.0479,-0.0465,-0.0461,-0.0444,-0.0374,-0.033,-0.0261,-0.0169,-0.0116,-0.0059,-0.0007,-0.0034,-0.0034,-0.0047,-0.0064,-0.0092,-0.0113,-0.0102,-0.0105,-0.0091,-0.0159,-0.0137,-0.0138,-0.0143,-0.0144,-0.0145,-0.0129,0,-0.0485,-0.0474,-0.0459,-0.042,-0.0397,-0.0323,-0.0258,-0.0176,-0.01,-0.0033,-0.0035,-0.0018,-0.0029,-0.004,-0.0068,-0.0105,-0.0126,-0.0113,-0.0158,-0.0158,-0.014,-0.0144,-0.0113,-0.0096,-0.0133,-0.0133,-0.0134,0,-0.049,-0.0479,-0.0457,-0.0415,-0.0398,-0.0361,-0.0249,-0.019,-0.0098,-0.0048,-0.0029,-0.001,-0.0027,-0.005,-0.0099,-0.0086,-0.0122,-0.015,-0.0151,-0.0146,-0.0145,-0.0105,-0.0101,-0.0144,-0.0139,-0.0139,-0.0138,0,-0.049,-0.0472,-0.0451,-0.0435,-0.0374,-0.0341,-0.0297,-0.0199,-0.0147,-0.0071,-0.0037,-0.0031,-0.0034,-0.0078,-0.0095,-0.0106,-0.0146,-0.0175,-0.0184,-0.0181,-0.0172,-0.0166,-0.0219,-0.0234,-0.0234,-0.0234,-0.0234,0,-0.0487,-0.0473,-0.0455,-0.0439,-0.0395,-0.0363,-0.0308,-0.024,-0.0183,-0.0137,-0.0072,-0.0038,-0.0048,-0.0045,-0.0085,-0.0119,-0.0137,-0.018,-0.0187,-0.0158,-0.0152,-0.0204,-0.0238,-0.0234,-0.0234,-0.0234,-0.0234,0,-0.0485,-0.0476,-0.0452,-0.0411,-0.0396,-0.0366,-0.0323,-0.0284,-0.0227,-0.0168,-0.0148,-0.0054,-0.0029,-0.0021,-0.0072,-0.0104,-0.0167,-0.0164,-0.0096,-0.0096,-0.0156,-0.0189,-0.0261,-0.0272,-0.0176,-0.0175,-0.0175,0,-0.048,-0.0471,-0.0434,-0.0414,-0.0399,-0.0368,-0.0337,-0.0295,-0.0264,-0.0175,-0.015,-0.0082,-0.001,-0.0021,-0.0046,-0.0073,-0.0142,-0.0099,-0.0139,-0.0153,-0.0195,-0.0231,-0.0238,-0.0099,-0.0098,-0.0097,-0.0097,0,-0.0459,-0.0449,-0.0426,-0.0394,-0.0369,-0.0343,-0.0317,-0.0299,-0.0247,-0.0191,-0.0112,-0.0053,-0.0009,0.0033,0.0019,-0.0032,-0.0121,-0.0086,-0.0138,-0.0171,-0.0178,-0.0192,-0.0082,-0.0089,-0.009,-0.0091,-0.0091,-0.0091,-0.0437,-0.0412,-0.0381,-0.035,-0.0334,-0.0306,-0.0267,-0.0243,-0.0187,-0.0063,-0.0072,0.0087,0.011,0.0123,0.0024,-0.0058,-0.0089,-0.01,-0.0141,-0.0178,-0.0191,-0.0041,-0.0041,-0.0042,-0.0042,-0.0042,-0.0043,0,-0.0382,-0.0356,-0.0333,-0.029,-0.0273,-0.0269,-0.0229,-0.0167,-0.0082,0.004,0.0124,0.0304,0.0258,0.0207,0.0085,-0.0064,-0.0144,-0.0144,-0.0196,-0.0204,-0.0098,-0.0097,-0.0064,-0.0064,-0.0064,-0.0064,-0.0064,-0.0064,-0.0352,-0.0296,-0.0283,-0.0227,-0.0209,-0.0142,-0.0105,-0.001,0.0101,0.0352,0.0545,0.0653,0.071,0.0274,-0.0003,-0.0114,-0.0232,-0.0264,-0.032,-0.0253,-0.0252,-0.0251,-0.026,-0.0261,-0.0261,-0.0397,-0.0399,-0.04]}],[{"header":{"parameterUnit":"m.s-1","parameterCategory":2,"la1":30.2991,"la2":30.254,"lo1":-89.0895,"lo2":-89.0444,"dy":0.0017,"dx":0.0017,"nx":28,"ny":28,"refTime":"2025-08-14T09:00:00:Z","depth":"2","parameterNumber":2,"parameterNumberName":"U-component_of_CURRENTS"},"data":[0,0,0,0,0,0,0,0,0,0,0,0,0,0,0,0,0,0,0,0,0,0,0,0,0,0,0,0,0,0,0,0,0,0,0,0,0,0,0,0,0,0,0,0,0,0,0,0,0,0,0,0,0,0,0,0,0,0,0.0073,0.0076,0,0.0206,0.0206,0.0205,0.0196,0.0196,0.0196,0.0196,0.011,0.0108,0.0105,0,0,0,0,0,0,0,0,0,0,0,0,0,-0.0247,-0.0243,0.0072,0.0076,0.008,0.0206,0.0206,0.0205,0.0196,0.0196,0.0196,0.0197,0.0111,0.0108,0.0105,0,0,0,0,0,0,0,0,0,0,0,0,0,-0.0133,-0.0241,0.0072,0.0108,0.0115,0.0207,0.0206,0.0205,0.0196,0.0196,0.0196,0.0197,0.0112,0.0109,0.0105,0.0075,0,0,0.0093,0.0092,0,0,0,0,0,0,0,0,-0.014,-0.0125,0.0099,0.0106,0.0114,0.0206,0.0064,0.0159,0.0196,0.0139,0.0196,0.0197,0.0138,0.0132,0.0125,0.0071,0.0067,0.0093,0.0091,0.0089,0.0088,0,0,0,0,0,0,0,-0.0147,-0.013,0.0101,0.0104,0.0113,0.0102,0.0115,0.008,0.0112,0.0144,0.015,0.0203,0.0137,0.0128,0.0122,0.0066,0.0093,0.009,0.0087,0.0086,0.0105,0.0107,0,0,0,0,0,0,-0.0111,-0.0137,0.0097,0.0107,0.0013,0.0109,0.0123,0.0156,0.0117,0.0121,0.0203,0.0203,0.0135,0.0127,0.0119,0.0146,0.0089,0.0086,0.0083,0.0102,0.0105,0.0108,0,0,0,0,0,0,-0.012,-0.0093,0.0092,0.0008,0.0034,0.0117,0.0152,0.0159,0.0191,0.0169,0.0163,0.0235,0.0135,0.0125,0.0141,0.014,0.0084,0.008,0.0099,0.0103,0.0107,0.0156,0,0,0,0,0,0,-0.013,-0.0098,-0.0101,0.001,0.0041,0.0148,0.0155,0.0162,0.0233,0.0234,0.0194,0.0184,0.0134,0.0147,0.0137,0.0134,0.0078,0.0095,0.01,0.0105,0.0151,0.0162,0.0171,0,0,0,0,0,-0.0143,-0.0174,-0.0103,-0.0074,0.0046,0.0151,0.0161,0.0205,0.0235,0.0234,0.0247,0.0187,0.0172,0.0147,0.0134,0.0129,0.0093,0.0099,0.0105,0.0147,0.016,0.0171,0,0,0,0,0,0,-0.0305,-0.017,-0.0093,-0.0075,0.0054,0.0158,0.0165,0.0232,0.0242,0.0252,0.0219,0.021,0.0198,0.019,0.0164,0.016,0.0123,0.0127,0.016,0.0171,0.0181,0.0194,0.0074,0,0,0,0,0,-0.0327,-0.0327,-0.0145,-0.0121,-0.0049,0.0079,0.0122,0.0189,0.0246,0.0253,0.0233,0.0228,0.0209,0.0218,0.017,0.0193,0.0193,0.0189,0.0199,0.0206,0.0216,0.0218,0.0228,0.0128,0.0128,0.0128,0,0,-0.0369,-0.0298,-0.0289,-0.0155,-0.0056,0.0047,0.0097,0.0197,0.0251,0.0239,0.0249,0.0231,0.0216,0.0211,0.0211,0.0215,0.0248,0.0214,0.022,0.0226,0.0225,0.0235,0.0243,0.0133,0.0132,0.0131,0,0,-0.0451,-0.0376,-0.0383,-0.0269,-0.0091,0.001,0.0064,0.0202,0.022,0.0284,0.0267,0.0292,0.0267,0.0262,0.026,0.0315,0.0268,0.0296,0.0381,0.0383,0.039,0.0397,0.0454,0.0465,0.0337,0.0337,0.0337,0,-0.0437,-0.0452,-0.0363,-0.0297,-0.018,0.0012,0.011,0.0157,0.0268,0.0281,0.0293,0.0306,0.0292,0.0314,0.0345,0.0329,0.0342,0.0327,0.0392,0.0398,0.0403,0.046,0.0471,0.034,0.034,0.0339,0.0339,0,-0.0524,-0.0476,-0.0451,-0.0293,-0.0183,-0.0062,0.0105,0.0168,0.0255,0.0301,0.0326,0.0342,0.0374,0.0367,0.038,0.0416,0.0418,0.0367,0.0351,0.0415,0.0473,0.0483,0.0345,0.0344,0.0343,0.0342,0,0,-0.0461,-0.05,-0.0435,-0.0394,-0.0144,-0.0044,0.0064,0.0209,0.0267,0.0331,0.0366,0.0399,0.0435,0.0444,0.0458,0.0491,0.0566,0.0473,0.0472,0.0513,0.0614,0.0606,0.0617,0.0512,0.0513,0.0514,0.0654,0,-0.0448,-0.0434,-0.0409,-0.0271,-0.0208,-0.0012,0.0078,0.0213,0.0295,0.0339,0.0386,0.04,0.0455,0.0487,0.0538,0.0529,0.0589,0.0535,0.0562,0.0565,0.0532,0.0626,0.0531,0.0645,0.0664,0.0666,0.0667,0,-0.0412,-0.0437,-0.0364,-0.0287,-0.0216,-0.0097,0.0133,0.022,0.0321,0.0369,0.044,0.0438,0.0535,0.0533,0.0647,0.061,0.0641,0.064,0.0644,0.0621,0.0574,0.0578,0.0663,0.0684,0.0683,0.0681,0.068,0,-0.0384,-0.0328,-0.0296,-0.0237,-0.013,-0.0044,0.007,0.0231,0.0295,0.038,0.0427,0.0506,0.0558,0.0613,0.0686,0.0664,0.076,0.0718,0.0749,0.075,0.0669,0.066,0.0772,0.0772,0.0772,0.0771,0.0771,0,-0.0332,-0.0271,-0.0296,-0.0264,-0.0176,-0.0059,0.0088,0.0184,0.031,0.0381,0.0448,0.0516,0.057,0.0626,0.069,0.079,0.0792,0.0792,0.0784,0.0692,0.0684,0.0697,0.0686,0.0776,0.0775,0.0774,0.0773,0,-0.0256,-0.0282,-0.0252,-0.0203,-0.0175,-0.0077,0.0087,0.016,0.0305,0.0401,0.0425,0.0526,0.064,0.0692,0.0761,0.0802,0.0865,0.0878,0.0801,0.0781,0.0864,0.0855,0.0963,0.0964,0.0965,0.0966,0.0966,0,-0.0217,-0.0213,-0.0199,-0.0192,-0.0162,-0.0044,0.0036,0.0169,0.0238,0.0426,0.0445,0.0547,0.0665,0.0803,0.0847,0.0961,0.0917,0.0879,0.0813,0.0903,0.0884,0.0873,0.0863,0.0756,0.0755,0.0754,0.0753,0,-0.0152,-0.0128,-0.0138,-0.0155,-0.0105,-0.0047,0.0046,0.01,0.0275,0.0378,0.0518,0.0612,0.0752,0.0826,0.0916,0.0937,0.0859,0.0863,0.0962,0.0709,0.0713,0.0692,0.0688,0.0744,0.0745,0.0745,0.0746,0.0746,-0.0057,-0.0055,-0.0095,-0.0076,-0.0063,-0.0034,0.0054,0.0142,0.0281,0.0482,0.0549,0.0694,0.0691,0.083,0.0885,0.0879,0.0911,0.0819,0.082,0.0822,0.0759,0.0762,0.0795,0.0797,0.0798,0.0798,0.0799,0,-0.0005,-0.0039,-0.0035,-0.0048,-0.0027,-0.0026,0.0072,0.0176,0.0343,0.0497,0.068,0.0607,0.0727,0.0739,0.0772,0.0812,0.0776,0.0736,0.0671,0.0678,0.0685,0.0613,0.0613,0.0613,0.0613,0.0614,0,0,-0.0017,-0.0026,-0.0043,-0.0016,-0.0001,0.008,0.0152,0.029,0.0418,0.0528,0.0588,0.0754,0.0711,0.0656,0.0672,0.068,0.0678,0.0643,0.0777,0.0707,0.0715,0.0701,0.0594,0,0,0,0,0]},{"header":{"parameterUnit":"m.s-1","parameterCategory":2,"la1":30.2991,"la2":30.254,"lo1":-89.0895,"lo2":-89.0444,"dy":0.0017,"dx":0.0017,"nx":28,"ny":28,"refTime":"2025-08-14T09:00:00:Z","depth":"2","parameterNumber":3,"parameterNumberName":"V-component_of_CURRENTS"},"data":[0,0,0,0,0,0,0,0,0,0,0,0,0,0,0,0,0,0,0,0,0,0,0,0,0,0,0,0,0,0,0,0,0,0,0,0,0,0,0,0,0,0,0,0,0,0,0,0,0,0,0,0,0,0,0,0,0,0,-0.0126,-0.0126,0,-0.0041,-0.004,-0.0038,-0.0006,-0.0007,-0.0007,-0.0008,-0.0021,-0.0021,-0.0021,0,0,0,0,0,0,0,0,0,0,0,0,0,0.0013,0.0008,-0.0127,-0.0126,-0.0125,-0.0041,-0.0039,-0.0038,-0.0006,-0.0007,-0.0007,-0.0008,-0.0021,-0.0021,-0.0021,0,0,0,0,0,0,0,0,0,0,0,0,0,0.0012,0.0007,-0.0127,-0.0101,-0.0098,-0.0041,-0.0039,-0.0038,-0.0006,-0.0007,-0.0008,-0.0008,-0.0021,-0.0021,-0.0021,-0.0005,0,0,-0.002,-0.002,0,0,0,0,0,0,0,0,0.0012,0.0007,-0.0105,-0.0102,-0.0099,-0.0037,0.0005,-0.0033,-0.0006,-0.0038,-0.0008,-0.0009,-0.0037,-0.0035,-0.0013,-0.0006,-0.0006,-0.002,-0.002,-0.002,-0.002,0,0,0,0,0,0,0,0.0011,0.0005,-0.009,-0.0104,-0.01,0.0001,-0.0002,-0.0,-0.0034,-0.0035,-0.0034,-0.0028,-0.0035,-0.0013,-0.0013,-0.0006,-0.002,-0.002,-0.002,-0.002,-0.0023,-0.0023,0,0,0,0,0,0,-0.0019,0.0003,-0.0093,-0.0088,-0.0047,-0.0002,-0.0005,-0.0054,-0.0032,-0.0029,-0.0027,-0.0027,-0.0013,-0.0013,-0.0014,-0.0036,-0.002,-0.002,-0.002,-0.0023,-0.0023,-0.0023,0,0,0,0,0,0,-0.0017,-0.003,-0.0096,-0.0037,-0.004,-0.0006,-0.0059,-0.0052,-0.0029,-0.0025,-0.0024,-0.0012,-0.0013,-0.0014,-0.0031,-0.0035,-0.002,-0.002,-0.0022,-0.0023,-0.0023,-0.0054,0,0,0,0,0,0,-0.0014,-0.0032,-0.0051,-0.0043,-0.0044,-0.0051,-0.0059,-0.005,-0.0025,-0.0024,-0.0012,-0.0013,-0.0014,-0.0031,-0.0031,-0.0034,-0.002,-0.0022,-0.0022,-0.0023,-0.0053,-0.0055,-0.0057,0,0,0,0,0,-0.001,-0.0021,-0.0055,-0.0064,-0.0085,-0.005,-0.0039,-0.0013,-0.0024,0.0002,-0.0021,-0.0014,-0.0032,-0.0032,-0.0031,-0.0035,-0.0022,-0.0022,-0.0023,-0.0052,-0.0055,-0.0057,0,0,0,0,0,0,0.004,-0.0019,-0.0055,-0.0086,-0.0072,-0.0045,-0.0018,-0.0012,-0.0002,-0.003,-0.0021,-0.0024,-0.0036,-0.0031,-0.003,-0.0035,-0.0023,-0.0023,-0.0045,-0.0048,-0.005,-0.005,-0.002,0,0,0,0,0,0.003,0.0004,-0.003,-0.0044,-0.0056,-0.0044,-0.0022,-0.0028,-0.0026,-0.0021,-0.0006,-0.0017,-0.0033,-0.004,-0.0039,-0.0046,-0.0051,-0.0045,-0.0047,-0.0049,-0.0048,-0.0075,-0.008,-0.0024,-0.0024,-0.0024,0,0,0.006,0.0017,0.001,-0.0033,-0.0034,-0.0045,-0.0032,-0.0026,-0.0024,-0.003,-0.0012,-0.0022,-0.0036,-0.0047,-0.0051,-0.0047,-0.0068,-0.005,-0.0052,-0.0049,-0.0076,-0.0081,-0.0086,-0.0024,-0.0024,-0.0024,0,0,0.0109,0.0038,0.0031,0.0008,-0.0022,-0.0026,-0.0031,-0.0025,-0.0014,-0.0016,-0.003,-0.0046,-0.0036,-0.0052,-0.0065,-0.0078,-0.0078,-0.0072,-0.0088,-0.0114,-0.0119,-0.0123,-0.0139,-0.0145,-0.0076,-0.0076,-0.0076,0,0.0125,0.0094,0.0053,0.0017,-0.0,-0.0028,-0.0044,-0.0037,-0.0023,-0.0016,-0.0019,-0.0032,-0.0041,-0.0078,-0.0087,-0.0084,-0.0096,-0.008,-0.0118,-0.0123,-0.0127,-0.0142,-0.0148,-0.0077,-0.0077,-0.0077,-0.0077,0,0.0165,0.012,0.0114,0.0036,0.002,0.0006,-0.0038,-0.002,-0.0025,-0.0024,-0.0036,-0.0058,-0.0061,-0.0072,-0.009,-0.0122,-0.0121,-0.0119,-0.0115,-0.0135,-0.0149,-0.0154,-0.008,-0.0079,-0.0079,-0.0078,0,0,0.0176,0.0151,0.0121,0.0112,0.001,0.0012,-0.0015,-0.0019,-0.0016,-0.0026,-0.001,-0.0062,-0.0072,-0.0087,-0.011,-0.0144,-0.0189,-0.0148,-0.0149,-0.0169,-0.0246,-0.0208,-0.021,-0.0201,-0.0202,-0.0203,-0.0244,0,0.0198,0.0193,0.0138,0.0116,0.0113,0.0042,0.0027,-0.0001,-0.0003,0.0014,-0.0038,-0.0043,-0.0082,-0.0091,-0.0137,-0.0171,-0.0205,-0.0177,-0.0217,-0.0218,-0.0187,-0.0216,-0.0144,-0.0172,-0.025,-0.0251,-0.0251,0,0.0188,0.021,0.0207,0.0181,0.0157,0.0126,0.0094,0.0071,0.0043,0.0035,-0.0002,-0.0018,-0.0078,-0.0096,-0.0193,-0.0177,-0.0212,-0.0244,-0.0246,-0.0203,-0.0191,-0.0163,-0.0179,-0.026,-0.026,-0.0259,-0.0258,0,0.0242,0.0215,0.024,0.0216,0.0186,0.0173,0.0141,0.0089,0.0076,0.0052,0.0055,-0.0022,-0.0044,-0.0121,-0.0185,-0.0191,-0.0276,-0.0286,-0.0287,-0.0285,-0.0225,-0.0215,-0.0343,-0.0343,-0.0343,-0.0343,-0.0343,0,0.0259,0.026,0.028,0.0292,0.0313,0.0224,0.0209,0.0188,0.0125,0.0112,0.0063,0.0064,-0.0052,-0.0098,-0.0175,-0.0248,-0.027,-0.0294,-0.0297,-0.0233,-0.0223,-0.0297,-0.0291,-0.0345,-0.0344,-0.0344,-0.0344,0,0.0271,0.0291,0.0329,0.034,0.0343,0.0336,0.0264,0.0267,0.0185,0.0176,0.0171,0.0118,0.0056,-0.0044,-0.0152,-0.0217,-0.0295,-0.0307,-0.0218,-0.021,-0.029,-0.0286,-0.0326,-0.0325,-0.0324,-0.0324,-0.0323,0,0.0276,0.031,0.0365,0.0418,0.0423,0.0409,0.0409,0.0316,0.0309,0.0225,0.0248,0.0191,0.0207,0.0058,-0.0067,-0.0187,-0.0251,-0.0217,-0.0217,-0.0292,-0.0291,-0.0287,-0.0283,-0.0155,-0.0153,-0.0151,-0.015,0,0.0295,0.0304,0.0345,0.0475,0.0515,0.0551,0.0542,0.0536,0.0423,0.0425,0.0425,0.0433,0.0312,0.0228,0.005,-0.0026,-0.0198,-0.0188,-0.0296,-0.0162,-0.0132,-0.013,-0.0132,-0.0136,-0.0138,-0.0139,-0.0139,-0.014,0.0256,0.0309,0.0387,0.0496,0.0582,0.0672,0.0681,0.0678,0.0669,0.0665,0.064,0.0656,0.0478,0.0319,0.0145,-0.0051,-0.0062,-0.0133,-0.0137,-0.0143,-0.0108,-0.0077,-0.0065,-0.0066,-0.0067,-0.0068,-0.0068,0,0.0221,0.0317,0.0424,0.057,0.0702,0.0712,0.0759,0.0778,0.0797,0.0862,0.0899,0.0775,0.0669,0.0429,0.0177,0.0022,0.0008,-0.0046,-0.0042,-0.0052,-0.0062,-0.0024,0.0042,0.0041,0.004,0.004,0,0,0.0226,0.0313,0.0401,0.0633,0.074,0.084,0.0858,0.0905,0.0956,0.104,0.1049,0.1095,0.0771,0.0593,0.0364,0.02,0.0124,0.0188,0.013,0.0159,0.0151,-0.0072,-0.0019,0,0,0,0,0]}],[{"header":{"parameterUnit":"m.s-1","parameterCategory":2,"la1":30.2991,"la2":30.254,"lo1":-89.0895,"lo2":-89.0444,"dy":0.0017,"dx":0.0017,"nx":28,"ny":28,"refTime":"2025-08-14T09:00:00:Z","depth":"4","parameterNumber":2,"parameterNumberName":"U-component_of_CURRENTS"},"data":[0,0,0,0,0,0,0,0,0,0,0,0,0,0,0,0,0,0,0,0,0,0,0,0,0,0,0,0,0,0,0,0,0,0,0,0,0,0,0,0,0,0,0,0,0,0,0,0,0,0,0,0,0,0,0,0,0,0,-0.0554,-0.0554,0,-0.0538,-0.0537,-0.0536,-0.0498,-0.0497,-0.0497,-0.0497,-0.0495,-0.0495,-0.0495,0,0,0,0,0,0,0,0,0,0,0,0,0,-0.044,-0.0442,-0.0554,-0.0554,-0.0555,-0.0538,-0.0537,-0.0536,-0.0498,-0.0497,-0.0497,-0.0497,-0.0495,-0.0495,-0.0495,0,0,0,0,0,0,0,0,0,0,0,0,0,-0.0456,-0.0443,-0.0554,-0.0539,-0.0538,-0.0538,-0.0537,-0.0536,-0.0498,-0.0497,-0.0497,-0.0497,-0.0495,-0.0495,-0.0495,-0.0501,0,0,-0.0496,-0.0496,0,0,0,0,0,0,0,0,-0.0456,-0.046,-0.054,-0.054,-0.0539,-0.0526,-0.0496,-0.0527,-0.0498,-0.0505,-0.0497,-0.0497,-0.0512,-0.051,-0.0497,-0.0501,-0.05,-0.0496,-0.0496,-0.0496,-0.0496,0,0,0,0,0,0,0,-0.0455,-0.046,-0.054,-0.0541,-0.054,-0.0495,-0.0497,-0.0501,-0.0505,-0.0505,-0.0504,-0.0513,-0.051,-0.0497,-0.0497,-0.05,-0.0496,-0.0496,-0.0496,-0.0496,-0.0513,-0.0513,0,0,0,0,0,0,-0.0478,-0.046,-0.0541,-0.054,-0.0504,-0.0498,-0.0501,-0.0524,-0.0504,-0.0503,-0.0514,-0.0512,-0.0497,-0.0497,-0.0497,-0.0532,-0.0496,-0.0496,-0.0496,-0.0513,-0.0513,-0.0513,0,0,0,0,0,0,-0.0475,-0.0486,-0.0541,-0.0504,-0.0509,-0.0502,-0.0528,-0.0524,-0.0526,-0.0512,-0.0509,-0.0522,-0.0497,-0.0497,-0.0502,-0.053,-0.0496,-0.0496,-0.0512,-0.0513,-0.0513,-0.0583,0,0,0,0,0,0,-0.0472,-0.0485,-0.0493,-0.0506,-0.0512,-0.0551,-0.0529,-0.0524,-0.0535,-0.0532,-0.0518,-0.0517,-0.0497,-0.0502,-0.0502,-0.053,-0.0496,-0.0512,-0.0512,-0.0513,-0.058,-0.0586,-0.0591,0,0,0,0,0,-0.0469,-0.0479,-0.0494,-0.0503,-0.053,-0.0552,-0.055,-0.0538,-0.0536,-0.0537,-0.0525,-0.0518,-0.0507,-0.0503,-0.0503,-0.0531,-0.0511,-0.0512,-0.0513,-0.0578,-0.0585,-0.059,0,0,0,0,0,0,-0.0427,-0.0477,-0.0494,-0.0518,-0.0543,-0.0549,-0.0545,-0.0552,-0.0542,-0.0542,-0.0524,-0.0521,-0.0534,-0.0521,-0.0517,-0.0535,-0.0508,-0.0509,-0.0557,-0.0563,-0.0569,-0.0572,-0.0496,0,0,0,0,0,-0.0429,-0.0453,-0.0497,-0.0516,-0.0534,-0.0547,-0.0551,-0.0559,-0.0561,-0.0556,-0.0546,-0.0536,-0.0535,-0.0541,-0.0528,-0.0547,-0.0528,-0.0563,-0.0568,-0.0573,-0.0574,-0.0581,-0.0588,-0.0516,-0.0516,-0.0516,0,0,-0.0414,-0.0449,-0.0459,-0.0509,-0.0524,-0.0549,-0.0547,-0.0571,-0.0582,-0.056,-0.0557,-0.0554,-0.0541,-0.0551,-0.0557,-0.0548,-0.0578,-0.0574,-0.0578,-0.0577,-0.0583,-0.059,-0.0596,-0.0517,-0.0517,-0.0517,0,0,-0.0403,-0.044,-0.0458,-0.0487,-0.0534,-0.055,-0.0568,-0.0592,-0.0591,-0.0605,-0.0588,-0.0605,-0.0595,-0.0595,-0.0595,-0.0626,-0.0601,-0.0623,-0.0663,-0.067,-0.0677,-0.0682,-0.065,-0.0652,-0.0632,-0.0632,-0.0632,0,-0.0389,-0.0423,-0.0462,-0.0493,-0.0513,-0.0559,-0.0581,-0.0594,-0.0609,-0.0612,-0.0611,-0.0618,-0.0617,-0.064,-0.0649,-0.0642,-0.0623,-0.0645,-0.0679,-0.0684,-0.0688,-0.0654,-0.0656,-0.0635,-0.0635,-0.0635,-0.0634,0,-0.0396,-0.0423,-0.0438,-0.0497,-0.0522,-0.0552,-0.0595,-0.0615,-0.0632,-0.0641,-0.0666,-0.0672,-0.0679,-0.0689,-0.0682,-0.0717,-0.0685,-0.0683,-0.0668,-0.07,-0.0661,-0.0661,-0.064,-0.0639,-0.0638,-0.0637,0,0,-0.0381,-0.0431,-0.0442,-0.0459,-0.053,-0.0553,-0.0588,-0.0625,-0.0653,-0.0674,-0.0691,-0.072,-0.0737,-0.0738,-0.0747,-0.0765,-0.0784,-0.0744,-0.0742,-0.0719,-0.077,-0.0678,-0.0669,-0.0792,-0.0793,-0.0793,-0.0725,0,-0.0381,-0.0418,-0.0449,-0.0483,-0.0507,-0.0558,-0.0584,-0.0625,-0.0662,-0.0688,-0.0718,-0.0746,-0.0753,-0.0782,-0.0798,-0.079,-0.079,-0.08,-0.0735,-0.0732,-0.0654,-0.0668,-0.0796,-0.0725,-0.0725,-0.0725,-0.0725,0,-0.039,-0.0411,-0.0439,-0.0477,-0.0494,-0.052,-0.0586,-0.0621,-0.0677,-0.0704,-0.0752,-0.0776,-0.0818,-0.0819,-0.0825,-0.0831,-0.0803,-0.0791,-0.0789,-0.0679,-0.0641,-0.0688,-0.0724,-0.0724,-0.0724,-0.0724,-0.0724,0,-0.0363,-0.0408,-0.0423,-0.0441,-0.0495,-0.0512,-0.0549,-0.0619,-0.0652,-0.0731,-0.0764,-0.081,-0.0832,-0.0834,-0.0818,-0.083,-0.0793,-0.0803,-0.0683,-0.0675,-0.0749,-0.0744,-0.079,-0.079,-0.079,-0.079,-0.079,0,-0.0356,-0.037,-0.041,-0.0419,-0.0437,-0.0494,-0.054,-0.0586,-0.066,-0.0675,-0.0776,-0.078,-0.0841,-0.0829,-0.0813,-0.0735,-0.0786,-0.0682,-0.0657,-0.0775,-0.0774,-0.0747,-0.0743,-0.0788,-0.0788,-0.0789,-0.0789,0,-0.0327,-0.0356,-0.0368,-0.041,-0.0421,-0.0441,-0.0513,-0.0548,-0.0642,-0.0667,-0.0696,-0.0757,-0.0735,-0.0763,-0.0741,-0.0709,-0.0665,-0.0615,-0.071,-0.0692,-0.0539,-0.054,-0.0489,-0.0485,-0.0482,-0.0479,-0.0477,0,-0.0315,-0.032,-0.0346,-0.0345,-0.036,-0.0403,-0.0424,-0.0518,-0.0539,-0.0613,-0.0587,-0.062,-0.0636,-0.0539,-0.0573,-0.0541,-0.0528,-0.0516,-0.0563,-0.053,-0.0512,-0.0517,-0.0521,-0.0472,-0.0471,-0.047,-0.047,0,-0.0277,-0.0289,-0.0295,-0.0292,-0.0301,-0.0312,-0.0335,-0.036,-0.0441,-0.052,-0.0477,-0.0488,-0.0439,-0.0438,-0.0426,-0.0399,-0.0549,-0.0483,-0.049,-0.0534,-0.051,-0.0496,-0.0504,-0.0459,-0.046,-0.0461,-0.0462,0,-0.0248,-0.0237,-0.0239,-0.0237,-0.0237,-0.0211,-0.0247,-0.0247,-0.0287,-0.0373,-0.0318,-0.0351,-0.0377,-0.0354,-0.0324,-0.032,-0.032,-0.0332,-0.0347,-0.036,-0.0356,-0.0309,-0.0167,0,0,0,0,0,-0.0213,-0.0193,-0.0181,-0.0171,-0.0167,-0.0163,-0.0174,-0.0219,-0.029,-0.023,-0.0288,-0.0237,-0.0227,-0.0236,-0.0204,-0.0269,-0.0329,-0.0232,-0.0353,-0.0399,-0.0411,-0.0423,0,0,0,0,0,0,-0.0186,-0.0172,-0.0162,-0.0112,-0.0104,-0.0086,-0.0097,-0.0139,-0.0114,-0.0184,-0.0168,-0.0212,-0.0197,-0.0234,-0.0196,-0.0201,-0.0268,-0.0249,-0.0248,-0.0392,-0.0403,-0.0413,-0.0429,0,0,0,0,0]},{"header":{"parameterUnit":"m.s-1","parameterCategory":2,"la1":30.2991,"la2":30.254,"lo1":-89.0895,"lo2":-89.0444,"dy":0.0017,"dx":0.0017,"nx":28,"ny":28,"refTime":"2025-08-14T09:00:00:Z","depth":"4","parameterNumber":3,"parameterNumberName":"V-component_of_CURRENTS"},"data":[0,0,0,0,0,0,0,0,0,0,0,0,0,0,0,0,0,0,0,0,0,0,0,0,0,0,0,0,0,0,0,0,0,0,0,0,0,0,0,0,0,0,0,0,0,0,0,0,0,0,0,0,0,0,0,0,0,0,0.0093,0.0093,0,0.012,0.0121,0.0122,0.0127,0.0126,0.0126,0.0125,0.0117,0.0117,0.0117,0,0,0,0,0,0,0,0,0,0,0,0,0,0.017,0.0168,0.0093,0.0093,0.0093,0.012,0.0121,0.0122,0.0127,0.0126,0.0126,0.0125,0.0117,0.0117,0.0117,0,0,0,0,0,0,0,0,0,0,0,0,0,0.0164,0.0167,0.0093,0.0097,0.0097,0.012,0.0121,0.0122,0.0127,0.0126,0.0125,0.0125,0.0117,0.0117,0.0117,0.0135,0,0,0.0119,0.0119,0,0,0,0,0,0,0,0,0.0164,0.0161,0.0096,0.0096,0.0097,0.0116,0.0145,0.0123,0.0127,0.0119,0.0125,0.0124,0.0112,0.0113,0.0125,0.0135,0.0135,0.0119,0.0119,0.0119,0.0119,0,0,0,0,0,0,0,0.0164,0.0161,0.0107,0.0096,0.0096,0.0139,0.0137,0.0142,0.0121,0.012,0.0119,0.0117,0.0112,0.0124,0.0124,0.0135,0.0119,0.0119,0.0119,0.0119,0.0127,0.0127,0,0,0,0,0,0,0.0148,0.016,0.0106,0.0108,0.0125,0.0138,0.0135,0.0114,0.0122,0.0122,0.0118,0.0117,0.0124,0.0124,0.0124,0.0113,0.0119,0.0119,0.012,0.0127,0.0127,0.0127,0,0,0,0,0,0,0.0149,0.0142,0.0105,0.0134,0.0131,0.0136,0.0113,0.0114,0.0117,0.0121,0.012,0.0117,0.0123,0.0123,0.0118,0.0114,0.012,0.012,0.0127,0.0127,0.0127,0.0112,0,0,0,0,0,0,0.0151,0.0142,0.0142,0.0131,0.0129,0.011,0.0113,0.0115,0.0116,0.0116,0.012,0.0119,0.0123,0.0117,0.0118,0.0115,0.012,0.0127,0.0127,0.0127,0.0113,0.0112,0.0111,0,0,0,0,0,0.0153,0.0149,0.0141,0.0136,0.0121,0.011,0.0113,0.0118,0.0117,0.0118,0.0117,0.0118,0.0117,0.0117,0.0119,0.0115,0.0127,0.0127,0.0127,0.0113,0.0112,0.0111,0,0,0,0,0,0,0.0188,0.0149,0.014,0.0125,0.0114,0.0109,0.0122,0.0114,0.0118,0.0118,0.0118,0.0118,0.011,0.0117,0.0116,0.0117,0.0123,0.0123,0.0112,0.0111,0.011,0.0105,0.0121,0,0,0,0,0,0.0192,0.0177,0.0147,0.0139,0.0132,0.0126,0.0129,0.012,0.0114,0.0115,0.011,0.0112,0.0114,0.0114,0.0115,0.0119,0.013,0.0117,0.0116,0.0115,0.0113,0.0138,0.0139,0.0126,0.0126,0.0126,0,0,0.0202,0.0183,0.0174,0.0146,0.0144,0.0121,0.0126,0.0119,0.0102,0.0114,0.0099,0.0105,0.0113,0.0112,0.011,0.0116,0.0123,0.0115,0.0114,0.0112,0.0138,0.0139,0.014,0.0126,0.0126,0.0126,0,0,0.0209,0.0196,0.0181,0.0164,0.0146,0.0134,0.0123,0.0103,0.0102,0.0088,0.0091,0.0096,0.0094,0.0102,0.0107,0.0103,0.0114,0.0101,0.0096,0.012,0.0121,0.0123,0.0132,0.0134,0.0104,0.0104,0.0104,0,0.0224,0.0191,0.0181,0.0158,0.0143,0.0129,0.0102,0.0099,0.0078,0.0075,0.0078,0.008,0.0091,0.0093,0.0096,0.0101,0.0111,0.0099,0.0119,0.0121,0.0122,0.0131,0.0134,0.0104,0.0104,0.0104,0.0104,0,0.0207,0.0184,0.0178,0.0132,0.0119,0.0098,0.0072,0.0056,0.0049,0.0046,0.0043,0.0062,0.0066,0.0072,0.0086,0.0099,0.01,0.0112,0.0122,0.0123,0.0132,0.0135,0.0103,0.0103,0.0103,0.0103,0,0,0.0203,0.0171,0.0162,0.0139,0.01,0.0079,0.0051,0.0024,0.0008,0.0007,-0.0002,0.002,0.0037,0.0045,0.0063,0.0089,0.0115,0.0107,0.0109,0.0115,0.0158,0.0134,0.0135,0.0132,0.0133,0.0133,0.0157,0,0.0184,0.0143,0.013,0.0081,0.005,0.003,0.0007,-0.0015,-0.0021,-0.0032,-0.0004,0.0005,0.0025,0.004,0.0064,0.0101,0.0124,0.0107,0.0157,0.0158,0.0136,0.0138,0.0135,0.0159,0.016,0.0161,0.0161,0,0.0149,0.0125,0.0083,0.0044,0.0031,0.0005,-0.004,-0.0058,-0.0067,-0.0061,-0.005,-0.0029,0.0004,0.003,0.0086,0.0074,0.0115,0.0145,0.0147,0.0132,0.014,0.0161,0.0167,0.0166,0.0166,0.0166,0.0165,0,0.0123,0.0082,0.0052,0.0034,-0.0008,-0.0026,-0.0045,-0.0067,-0.0077,-0.0069,-0.0061,-0.0038,-0.0001,0.0036,0.01,0.0099,0.0162,0.0169,0.018,0.0178,0.0199,0.0198,0.0214,0.0214,0.0214,0.0214,0.0214,0,0.0085,0.0054,0.0041,0.0013,-0.0028,-0.0038,-0.0075,-0.009,-0.009,-0.0094,-0.0063,-0.0062,0.001,0.0049,0.009,0.0138,0.0156,0.0175,0.0184,0.0191,0.0189,0.0201,0.0199,0.0215,0.0214,0.0214,0.0214,0,0.0046,0.0038,-0.0005,-0.0034,-0.0047,-0.0076,-0.0101,-0.0122,-0.0101,-0.0105,-0.0091,-0.0058,-0.0011,0.0046,0.0118,0.014,0.0181,0.0199,0.0192,0.0201,0.0179,0.0176,0.0198,0.0198,0.0197,0.0197,0.0196,0,0.0024,0.0001,-0.0041,-0.007,-0.0085,-0.0119,-0.0146,-0.0141,-0.0145,-0.0116,-0.0113,-0.006,-0.0036,0.0054,0.009,0.0156,0.0174,0.0197,0.0193,0.0171,0.0179,0.0177,0.0174,0.0195,0.0195,0.0195,0.0195,0,-0.0022,-0.003,-0.0062,-0.011,-0.0145,-0.0177,-0.0193,-0.0187,-0.0164,-0.0158,-0.0101,-0.0058,-0.0009,0.004,0.0111,0.0148,0.0175,0.0192,0.0193,0.0189,0.0168,0.0176,0.0174,0.0193,0.0194,0.0194,0.0194,0,-0.0046,-0.0078,-0.0107,-0.0146,-0.0182,-0.0189,-0.0208,-0.0184,-0.0173,-0.0108,-0.0114,-0.0051,-0.0022,0.0033,0.007,0.0127,0.0132,0.0157,0.0161,0.0163,0.014,0.0107,0.0121,0,0,0,0,0,-0.0072,-0.0101,-0.014,-0.0166,-0.0189,-0.0177,-0.0216,-0.0218,-0.0192,-0.0141,-0.0105,-0.0061,0.0011,0.0016,0.0072,0.0032,0.012,0.0094,0.0146,0.0183,0.0185,0.0162,0,0,0,0,0,0,-0.0094,-0.0133,-0.0142,-0.0151,-0.0134,-0.0143,-0.0138,-0.013,-0.0094,-0.0073,-0.0037,-0.0026,0.0032,0.0022,0.0096,0.01,0.0139,0.0119,0.012,0.0182,0.0184,0.0186,0.0163,0,0,0,0,0]}]]